{"data":{"norad_id":37841,"intl_designator":"2011-058D","name":"SRMSAT","alt_names":[],"object_type":"PAYLOAD","status":"ACTIVE","operator":null,"country":"IND","launch_date":"2011-10-12","launch_site_code":"SRILR","launch_vehicle":null,"mission":null,"orbit_class":"UNKNOWN","rcs_meters":0.2037,"size_class":null,"mass_kg":null,"dimensions":null,"purposes":["comms","earth_obs"],"wikipedia_slug":null,"has_3d_model":false,"image_url":null,"decayed_at":null,"tle_current":{"epoch":"2026-05-25T04:03:07.761312Z","epoch_age_seconds":63645,"freshness":"FRESH","line1":"1 37841U 11058D   26145.16883983  .00000374  00000+0  58909-4 0  9990","line2":"2 37841  19.9704 198.7982 0011649 311.7443  74.5953 14.11570050754567","mean_motion":14.1157005,"eccentricity":0.0011649,"inclination_deg":19.9704,"raan_deg":198.7982,"arg_perigee_deg":311.7443,"mean_anomaly_deg":74.5953,"bstar":5.8909e-5,"rev_number":75456,"period_min":102.01406582691,"perigee_km":845.57927691796,"apogee_km":862.42871901502,"semimajor_km":7232.1409979665,"source":"CELESTRAK","updated_at":"2026-05-25T13:38:23.284858Z"}}}